Weather Roundup
Issued by NWS Springfield, MO

Home | Current Version | Previous Version | Text Only | Print | Product List | Glossary On
Versions: 1 2 3 4 5 6 7 8 9 10 11 12 13 14 15 16 17 18 19 20 21 22 23 24 25 26 27 28 29 30 31 32 33 34 35 36 37 38 39 40 41 42 43 44 45 46 47 48 49 50
621
NZUS99 KSGF 131307
HRRSGF

HOURLY WEATHER
NATIONAL WEATHER SERVICE SPRINGFIELD MO
700 AM CST SAT FEB 13 2016

......SGF CWA......

CITY           SKY/WX    TMP DP  RH WIND       PRES   REMARKS
SPRINGFIELD    CLOUDY    22   1  40 E9        30.52R WCI  12
JOPLIN         CLOUDY    24   7  48 NE8       30.54S WCI  15
WEST PLAINS    CLOUDY    21  -2  36 NE9       30.54R WCI  11
ROLLA          CLOUDY    14   3  61 N8        30.57R WCI   3
OSAGE BEACH    CLOUDY    18   1  49 NE7       30.60S WCI   8
BRANSON        CLOUDY    25   5  42 N7        30.53R WCI  17

......SURROUNDING SGF CWA......

CITY           SKY/WX    TMP DP  RH WIND       PRES   REMARKS
CHANUTE        CLOUDY    22   5  48 NE7       30.55R WCI  13
PARSONS        CLOUDY    23   5  46 NE6       30.55R WCI  16
COFFEYVILLE    CLOUDY    23   6  48 NE10      30.55R WCI  12
EMPORIA        CLOUDY    20   6  55 NE12      30.53S WCI   8
GROVE OK       CLOUDY    30   7  37 NE7       30.54R WCI  23
ROGERS AR      CLOUDY    27   9  46 NE8       30.50R WCI  19
SILOAM SPRINGS CLOUDY    28   9  43 NE9       30.49R WCI  20
HARRISON AR    CLOUDY    26   6  42 NE6       30.51R WCI  19
NEAR YELLVILLE CLOUDY    27   7  43 N8        30.53R WCI  18

......KANSAS AND MISSOURI......

CITY           SKY/WX    TMP DP  RH WIND       PRES   REMARKS
KANSAS CTY INT CLOUDY    16   4  59 E10       30.60S WCI   4
DOWNTOWN KC    CLOUDY    18   4  54 NE9       30.63S WCI   7
COLUMBIA       CLOUDY    12   2  64 NE9       30.63R WCI   0
SEDALIA        CLOUDY    16   1  51 N9        30.64R WCI   4
ST JOSEPH      CLOUDY    15   1  53 E7        30.64S WCI   5
ST LOUIS       PTCLDY    12   1  61 N8        30.65R WCI   0
SPIRIT OF STL  PTCLDY    11   2  67 N5        30.65R WCI   3
KIRKSVILLE     CLOUDY     7  -2  66 N5        30.64R WCI  -2
WICHITA        CLOUDY    23  10  57 E12       30.48S WCI  12
TOPEKA         CLOUDY    20   4  50 E9        30.60S WCI   9
OLATHE         CLOUDY    16  -1  47 NE8       30.59R WCI   5

......TENNESSEE......

CITY           SKY/WX    TMP DP  RH WIND       PRES   REMARKS
MEMPHIS        CLOUDY    28  10  46 NE12      30.55R WCI  18
NASHVILLE      PTCLDY    20   4  50 N9        30.53R WCI   9

......ARKANSAS.......

CITY           SKY/WX    TMP DP  RH WIND       PRES   REMARKS
FAYETTEVILLE   CLOUDY    27  12  53 CALM      30.49R
FT SMITH       CLEAR     33  17  51 E8        30.49R WCI  26
LITTLE ROCK    PTCLDY    33  14  45 NE13      30.55R WCI  24

......OKLAHOMA.......

CITY           SKY/WX    TMP DP  RH WIND       PRES   REMARKS
TULSA          PTCLDY    28  15  58 NE8       30.51R WCI  20
PONCA CITY     CLOUDY    26  13  57 E9        30.50R WCI  17
MCALESTER      CLEAR     36  24  62 NE3       30.45S
OKLAHOMA CITY  PTCLDY    31  20  63 E10       30.42S WCI  22

......IOWA............

CITY           SKY/WX    TMP DP  RH WIND       PRES   REMARKS
DES MOINES     CLOUDY     4  -5  66 CALM      30.63S
QUAD CITIES    CLOUDY     5  -6  60 NW9       30.64R WCI  -9

......ILLINOIS........

CITY           SKY/WX    TMP DP  RH WIND       PRES   REMARKS
QUINCY         CLOUDY     5  -3  69 NW7       30.64R WCI  -7
CHICAGO        PTCLDY     2 -10  57 NW12      30.56R WCI -15




USA.gov is the U.S. government's official web portal to all federal, state and local government web resources and services.